User: anonymous   Login
Location: Newark
(44.9333°N, 0.5667°E)
Time: 14:25:31
(UTC+00:00)
Language:

Oscar 11 - Orbit

View from above orbital plane
View from above orbital plane
View from above satellite
View from above satellite

Ground track
Ground track

The orbit data is extracted from the following two-line orbital elements,

1 14781U 84021B   20056.48753566 +.00000089 +00000-0 +17003-4 0  9995
2 14781 097.5964 074.0439 0007803 203.2763 156.8100 14.83144832936086
Epoch (UTC): 25 February 2020 11:42:03
Eccentricity: 0.0007803
inclination: 97.5964°
perigee height: 614 km
apogee height: 625 km
right ascension of ascending node: 74.0439°
argument of perigee: 203.2763°
revolutions per day: 14.83144832
mean anomaly at epoch: 156.8100°
orbit number at epoch: 93608

The dashed part of the orbit path shows where the satellite is in the earth's shadow,  

DLR